Location: Blairvadach
(56.2780°N, 6.9720°W)
Time: 00:03:21
(UTC+00:00)

Envisat - Pass Details

Date: 16 November 2019
Orbit: 764 x 766 km, 98.1° (Epoch: 10 December)

Event Time Altitude Azimuth Distance (km) Brightness Sun altitude
Rises 19:09:44 0° 193° (SSW) 3,225 6.4 -23.4°
Reaches altitude 10° 19:12:15 10° 203° (SSW) 2,303 5.7 -23.8°
Maximum altitude 19:16:47 32° 266° (W) 1,297 4.8 -24.4°
Drops below altitude 10° 19:21:21 10° 330° (NNW) 2,317 5.9 -25.0°
Sets 19:23:55 0° 340° (NNW) 3,248 6.6 -25.4°
